Powrót do katalogu

SL-8 DEB

AktywnyLEO
NORAD 21169·DEBRIS·🇷🇺 Russia

Wystrzelony Feb 12, 1991 z Plesetsk Cosmodrome

Loading…

Następne Przeloty (najbliższe 24 godziny)

TLE

ŚwieżeSource: Space-Track

Epoka: Sep 14, 2026, 13:37 UTC

1 21169U 91009AG  26257.56802762  .00000008  00000-0  19618-3 0  9992
2 21169  73.9961 302.5822 0131013 111.2454  42.1701 12.22908837586056

Śledź SL-8 DEB w czasie rzeczywistym z AllMySat

Download on the App Store